This demonstration page uses our WeatherBlox Daily Observations layout. Learn more.

Left ArrowRight Arrow

Hourly Observations for May 14, 2018

Temp ( °F °C ) Dew Point ( °F °C ) Humidity (%) Winds ( mph kmh ) Pressure ( in mb ) Visibility ( mi km ) Precip ( " mm )
12:53 am 00:53 Clear 63 17.2 53 11.7 70 70 Calm 29.90 1012 10 16 0.00 0.00
1:53 am 01:53 Mostly Clear 65 18.3 53 11.7 66 66 SSW 5 7 29.91 1013 10 16 0.00 0.00
2:53 am 02:53 Clear 63 17.2 52 11.1 68 68 SSE 3 6 29.92 1013 10 16 0.00 0.00
3:53 am 03:53 Clear 59 15 52 11.1 78 78 N 3 6 29.93 1013 10 16 0.00 0.00
4:53 am 04:53 Clear 57 13.9 52 11.1 83 83 NNE 5 7 29.91 1013 10 16 0.00 0.00
5:53 am 05:53 Clear 56 13.3 52 11.1 87 87 Calm 29.91 1013 10 16 0.00 0.00
6:53 am 06:53 Sunny 58 14.4 53 11.7 84 84 Calm 29.92 1013 10 16 0.00 0.00
7:53 am 07:53 Sunny 62 16.7 51 10.6 67 67 S 5 7 29.92 1013 10 16 0.00 0.00
8:53 am 08:53 Sunny 65 18.3 52 11.1 63 63 VRB 3 6 29.92 1013 10 16 0.00 0.00
9:53 am 09:53 Sunny 69 20.6 52 11.1 55 55 Calm 29.91 1013 10 16 0.00 0.00
10:53 am 10:53 Sunny 73 22.8 52 11.1 48 48 VRB 5 7 29.90 1012 10 16 0.00 0.00
11:53 am 11:53 Sunny 77 25 53 11.7 43 43 SSW 7 11 29.88 1012 10 16 0.00 0.00
12:53 pm 12:53 Sunny 81 27.2 53 11.7 38 38 WSW 5 7 29.86 1011 10 16 0.00 0.00
1:53 pm 13:53 Sunny 81 27.2 53 11.7 38 38 Calm 29.84 1010 10 16 0.00 0.00
2:53 pm 14:53 Sunny 84 28.9 52 11.1 33 33 SSW 7 11 29.81 1010 10 16 0.00 0.00
3:53 pm 15:53 Sunny 86 30 50 10 29 29 S 7 11 29.79 1009 10 16 0.00 0.00
4:53 pm 16:53 Sunny 86 30 48 8.9 27 27 Calm 29.76 1008 10 16 0.00 0.00
5:53 pm 17:53 Sunny 87 30.6 49 9.4 27 27 S 7 11 29.75 1008 10 16 0.00 0.00
6:53 pm 18:53 Sunny 84 28.9 54 12.2 36 36 SSE 14 22 29.75 1007 10 16 0.00 0.00
7:53 pm 19:53 Sunny 79 26.1 56 13.3 45 45 SSE 12 19 29.76 1008 10 16 0.00 0.00
8:53 pm 20:53 Clear 74 23.3 56 13.3 54 54 SSE 8 13 29.79 1009 10 16 0.00 0.00
9:53 pm 21:53 Clear 74 23.3 55 12.8 52 52 S 10 17 29.83 1010 10 16 0.00 0.00
10:53 pm 22:53 Clear 73 22.8 55 12.8 53 53 S 14 22 29.85 1011 10 16 0.00 0.00
11:53 pm 23:53 Clear 68 20 55 12.8 63 63 S 6 9 29.88 1012 10 16 0.00 0.00

Powered by AerisWeather